Powrót do katalogu

GLOBAL-18

AktywnyŁącznośćVLEO
NORAD 52196·PAYLOAD·🇺🇸 United States

Wystrzelony Apr 2, 2022 z Rocket Lab Launch Complex 1

Loading…

Następne Przeloty (najbliższe 24 godziny)

TLE

ŚwieżeSource: Space-Track

Epoka: Sep 14, 2026, 05:29 UTC

1 52196U 22034B   26257.22851181  .00019869  00000-0  36171-3 0  9998
2 52196  52.9812 190.0518 0004064 155.5212 204.5988 15.49511620250750

Śledź GLOBAL-18 w czasie rzeczywistym z AllMySat

Download on the App Store